Regional Weather Roundup
Issued by NWS

Home | Current Version | Previous Version | Graphics & Text | Print | Product List | Glossary On
Versions: 1 2 3 4 5 6 7 8 9 10 11 12 13 14 15 16 17 18 19 20 21 22 23 24 25 26 27 28 29 30 31 32 33 34 35 36 37 38 39 40 41 42 43 44 45 46 47 48 49 50
000
ASUS44 KMEG 302200
RWRTN
TENNESSEE HOURLY STATE WEATHER ROUNDUP
NATIONAL WEATHER SERVICE MEMPHIS TN
500 PM CDT TUE JUN 30 2015

TNZ002-004-019-021-049-052-054-088>092-302300-
WEST TENNESSEE

CITY           SKY/WX    TMP DP  RH WIND       PRES   REMARKS
MEMPHIS INTL   CLOUDY    86  72  62 SW9       29.92F HX  92
NWS MEMPHIS      N/A     85 N/A N/A MISG        N/A
JACKSON        MOSUNNY   85  68  56 W9        29.91F
DYERSBURG        N/A    N/A N/A N/A MISG        N/A
PARIS          SUNNY     81  68  65 W6        29.90F
LEXINGTON      PTSUNNY   82  70  65 W7        29.91S
$$

TNZ008-025-027-028-033-062-065-066-302300-
NORTH MIDDLE TENNESSEE

CITY           SKY/WX    TMP DP  RH WIND       PRES   REMARKS
NASHVILLE      CLOUDY    84  68  58 W12       29.90S
CLARKSVILLE    SUNNY     83  69  62 W12       29.88S
COOKEVILLE     MOSUNNY   84  73  70 W7        29.90F HX  91
CROSSVILLE     CLOUDY    76  67  73 W6        29.96F
$$

TNZ061-075-076-078-094-096-097-302300-
SOUTH MIDDLE TENNESSEE

CITY           SKY/WX    TMP DP  RH WIND       PRES   REMARKS
FAYETTEVILLE   MOSUNNY   81  68  65 W10       29.94S
TULLAHOMA      MOSUNNY   81  68  65 W8        29.94F
WINCHESTER     MOSUNNY   81  70  69 W7        29.93F
COLUMBIA       SUNNY     84  72  65 W7        29.91S
SHELBYVILLE    MOSUNNY   84  72  65 W10       29.93S
$$

TNZ017-018-042-046-047-302300-
NORTHEAST TENNESSEE

CITY           SKY/WX    TMP DP  RH WIND       PRES   REMARKS
TRI CITIES     CLOUDY    79  66  64 SW14      29.92F
ELIZABETHTON   PTCLDY    75  64  69 W8        29.94R
$$

TNZ012-013-036-069-073-074-302300-
CENTRAL EAST TENNESSEE

CITY           SKY/WX    TMP DP  RH WIND       PRES   REMARKS
KNOXVILLE      CLOUDY    76  67  73 W12       29.91F
OAK RIDGE      LGT RAIN  73  67  81 W7        29.93F
GATLINBURG     CLEAR     75  70  83 SW5       29.90F
$$

TNZ083-085-099-302300-
SOUTHEAST TENNESSEE

CITY           SKY/WX    TMP DP  RH WIND       PRES   REMARKS
CHATTANOOGA    PTSUNNY   83  67  58 SW8       29.92F
$$

SKY/WX REPORTED AS FAIR MEANS FEW OR NO CLOUDS BELOW
12 THOUSAND FEET.



USA.gov is the U.S. government's official web portal to all federal, state and local government web resources and services.